TimeEDT,TemperatureF,Dew PointF,Humidity,Sea Level PressureIn,VisibilityMPH,Wind Direction,Wind SpeedMPH,Gust SpeedMPH,PrecipitationIn,Events,Conditions,WindDirDegrees,DateUTC
12:15 AM,60.3,47.3,62,30.08,10.0,North,6.9,-,N/A,,Clear,360,2013-08-10 04:15:00
12:35 AM,59.9,47.3,63,30.08,10.0,North,6.9,-,N/A,,Clear,360,2013-08-10 04:35:00
12:55 AM,60.3,47.5,63,30.09,10.0,North,5.8,-,N/A,,Clear,10,2013-08-10 04:55:00
1:15 AM,59.9,47.8,64,30.09,10.0,NNE,5.8,-,N/A,,Scattered Clouds,30,2013-08-10 05:15:00
1:35 AM,59.7,47.8,65,30.09,10.0,NNE,3.5,-,N/A,,Scattered Clouds,20,2013-08-10 05:35:00
1:55 AM,59.2,47.8,66,30.09,10.0,Calm,Calm,-,N/A,,Scattered Clouds,0,2013-08-10 05:55:00
2:15 AM,54.5,48.6,80,30.10,10.0,Calm,Calm,-,N/A,,Scattered Clouds,0,2013-08-10 06:15:00
2:34 AM,54.5,49.8,84,30.10,10.0,Calm,Calm,-,N/A,,Mostly Cloudy,0,2013-08-10 06:34:00
2:55 AM,54.1,49.6,85,30.10,10.0,SSE,3.5,-,N/A,,Scattered Clouds,160,2013-08-10 06:55:00
3:15 AM,53.2,48.9,85,30.11,10.0,Calm,Calm,-,N/A,,Clear,0,2013-08-10 07:15:00
3:34 AM,52.0,48.9,89,30.12,10.0,Calm,Calm,-,N/A,,Clear,0,2013-08-10 07:34:00
3:55 AM,51.6,48.4,89,30.12,10.0,South,3.5,-,N/A,,Clear,180,2013-08-10 07:55:00
4:14 AM,52.5,47.8,84,30.12,10.0,Calm,Calm,-,N/A,,Clear,0,2013-08-10 08:14:00
4:35 AM,51.1,48.4,90,30.12,10.0,Calm,Calm,-,N/A,,Clear,0,2013-08-10 08:35:00
4:55 AM,50.0,47.8,92,30.12,10.0,Calm,Calm,-,N/A,,Clear,0,2013-08-10 08:55:00
5:14 AM,51.1,48.2,90,30.13,10.0,Calm,Calm,-,N/A,,Clear,0,2013-08-10 09:14:00
5:35 AM,50.9,47.8,89,30.13,10.0,Calm,Calm,-,N/A,,Clear,0,2013-08-10 09:35:00
5:54 AM,50.9,48.2,90,30.13,10.0,Calm,Calm,-,N/A,,Clear,0,2013-08-10 09:54:00
6:15 AM,51.1,47.3,87,30.14,10.0,Calm,Calm,-,N/A,,Clear,0,2013-08-10 10:15:00
6:35 AM,52.3,47.7,84,30.14,10.0,Calm,Calm,-,N/A,,Clear,0,2013-08-10 10:35:00
6:55 AM,52.0,47.7,85,30.15,10.0,Calm,Calm,-,N/A,,Clear,0,2013-08-10 10:55:00
7:15 AM,52.9,48.2,84,30.15,10.0,Calm,Calm,-,N/A,,Clear,0,2013-08-10 11:15:00
7:34 AM,54.9,49.8,83,30.15,10.0,Calm,Calm,-,N/A,,Clear,0,2013-08-10 11:34:00
7:55 AM,56.3,51.1,83,30.15,10.0,Calm,Calm,-,N/A,,Clear,0,2013-08-10 11:55:00
8:15 AM,58.3,52.7,82,30.15,10.0,East,3.5,-,N/A,,Clear,90,2013-08-10 12:15:00
8:34 AM,60.1,54.3,81,30.15,10.0,Calm,Calm,-,N/A,,Scattered Clouds,0,2013-08-10 12:34:00
8:55 AM,61.7,54.5,77,30.16,10.0,SW,3.5,-,N/A,,Scattered Clouds,230,2013-08-10 12:55:00
9:15 AM,63.0,54.7,74,30.16,10.0,West,4.6,-,N/A,,Mostly Cloudy,270,2013-08-10 13:15:00
9:34 AM,63.0,54.3,73,30.16,10.0,WNW,8.1,-,N/A,,Scattered Clouds,290,2013-08-10 13:34:00
9:55 AM,63.7,53.4,69,30.17,10.0,West,8.1,-,N/A,,Scattered Clouds,270,2013-08-10 13:55:00
10:15 AM,65.8,55.0,68,30.16,10.0,West,10.4,-,N/A,,Scattered Clouds,270,2013-08-10 14:15:00
10:34 AM,67.3,55.9,67,30.17,10.0,WNW,9.2,-,N/A,,Scattered Clouds,300,2013-08-10 14:34:00
10:55 AM,67.1,55.2,66,30.17,10.0,WNW,11.5,-,N/A,,Scattered Clouds,290,2013-08-10 14:55:00
11:15 AM,67.6,55.2,64,30.17,10.0,West,10.4,-,N/A,,Scattered Clouds,270,2013-08-10 15:15:00
11:35 AM,66.6,54.5,65,30.17,10.0,West,9.2,-,N/A,,Mostly Cloudy,280,2013-08-10 15:35:00
11:55 AM,67.3,55.2,65,30.17,10.0,West,8.1,16.1,N/A,,Mostly Cloudy,270,2013-08-10 15:55:00
12:14 PM,66.9,55.2,66,30.18,10.0,West,10.4,-,N/A,,Overcast,270,2013-08-10 16:14:00
12:35 PM,67.1,55.2,66,30.18,10.0,West,8.1,-,N/A,,Overcast,270,2013-08-10 16:35:00
12:55 PM,67.6,55.2,64,30.18,10.0,West,9.2,-,N/A,,Mostly Cloudy,260,2013-08-10 16:55:00
1:15 PM,68.0,58.3,71,30.18,10.0,WNW,10.4,-,N/A,,Scattered Clouds,290,2013-08-10 17:15:00
1:35 PM,68.4,59.2,72,30.18,10.0,WNW,8.1,-,N/A,,Clear,290,2013-08-10 17:35:00
1:54 PM,68.0,57.4,69,30.18,10.0,West,10.4,-,N/A,,Scattered Clouds,270,2013-08-10 17:54:00
2:15 PM,68.4,57.7,69,30.18,10.0,West,10.4,-,N/A,,Clear,280,2013-08-10 18:15:00
2:35 PM,68.9,57.7,68,30.18,10.0,West,10.4,16.1,N/A,,Clear,280,2013-08-10 18:35:00
2:54 PM,68.7,57.4,67,30.18,10.0,WNW,11.5,-,N/A,,Clear,290,2013-08-10 18:54:00
3:15 PM,69.1,56.7,65,30.17,10.0,West,9.2,-,N/A,,Clear,270,2013-08-10 19:15:00
3:34 PM,69.3,57.2,65,30.17,10.0,West,9.2,-,N/A,,Clear,270,2013-08-10 19:34:00
3:55 PM,68.9,56.3,64,30.17,10.0,West,9.2,-,N/A,,Clear,280,2013-08-10 19:55:00
4:15 PM,69.1,56.7,65,30.17,10.0,West,10.4,-,N/A,,Clear,280,2013-08-10 20:15:00
4:34 PM,69.3,57.2,65,30.17,10.0,West,10.4,-,N/A,,Clear,260,2013-08-10 20:34:00
4:55 PM,68.7,58.1,69,30.17,10.0,West,9.2,-,N/A,,Clear,280,2013-08-10 20:55:00
5:15 PM,69.3,56.8,65,30.16,10.0,West,10.4,-,N/A,,Clear,270,2013-08-10 21:15:00
5:34 PM,68.9,55.8,63,30.16,10.0,WSW,9.2,-,N/A,,Clear,250,2013-08-10 21:34:00
5:55 PM,68.9,53.8,58,30.15,10.0,West,10.4,-,N/A,,Clear,260,2013-08-10 21:55:00
6:15 PM,68.9,52.5,56,30.15,10.0,West,8.1,-,N/A,,Clear,280,2013-08-10 22:15:00
6:34 PM,68.5,52.2,56,30.15,10.0,WNW,9.2,-,N/A,,Clear,290,2013-08-10 22:34:00
6:55 PM,68.2,52.9,58,30.14,10.0,WNW,9.2,-,N/A,,Clear,290,2013-08-10 22:55:00
7:15 PM,67.5,53.1,60,30.14,10.0,West,8.1,-,N/A,,Clear,280,2013-08-10 23:15:00
7:35 PM,67.1,52.9,60,30.14,10.0,West,8.1,-,N/A,,Clear,280,2013-08-10 23:35:00
7:55 PM,66.7,52.0,59,30.14,10.0,West,6.9,-,N/A,,Clear,260,2013-08-10 23:55:00
8:14 PM,65.8,52.3,62,30.13,10.0,WSW,5.8,-,N/A,,Clear,250,2013-08-11 00:14:00
8:35 PM,64.4,52.7,66,30.13,10.0,WSW,3.5,-,N/A,,Clear,250,2013-08-11 00:35:00
8:55 PM,62.6,53.6,72,30.12,10.0,WSW,4.6,-,N/A,,Clear,250,2013-08-11 00:55:00
9:14 PM,60.6,53.2,77,30.13,10.0,SW,3.5,-,N/A,,Clear,230,2013-08-11 01:14:00
9:35 PM,59.0,53.6,82,30.13,10.0,Calm,Calm,-,N/A,,Clear,0,2013-08-11 01:35:00
9:54 PM,59.0,53.6,82,30.14,10.0,Calm,Calm,-,N/A,,Clear,0,2013-08-11 01:54:00
10:15 PM,57.7,53.8,87,30.14,10.0,Calm,Calm,-,N/A,,Clear,0,2013-08-11 02:15:00
10:35 PM,57.9,54.0,87,30.14,10.0,WSW,3.5,-,N/A,,Clear,240,2013-08-11 02:35:00
10:54 PM,58.5,54.7,87,30.14,10.0,Calm,Calm,-,N/A,,Clear,0,2013-08-11 02:54:00
11:15 PM,56.8,53.6,89,30.14,10.0,Calm,Calm,-,N/A,,Clear,0,2013-08-11 03:15:00
11:35 PM,56.5,54.5,93,30.14,10.0,Calm,Calm,-,N/A,,Clear,0,2013-08-11 03:35:00
11:54 PM,57.4,55.9,95,30.14,10.0,SSW,3.5,-,N/A,,Clear,210,2013-08-11 03:54:00